Regional Weather Roundup
Issued by NWS

Home | Current Version | Previous Version | Text Only | Print | Product List | Glossary On
Versions: 1 2 3 4 5 6 7 8 9 10 11 12 13 14 15 16 17 18 19 20 21 22 23 24 25 26 27 28 29 30 31 32 33 34 35 36 37 38 39 40 41 42 43 44 45 46 47 48 49 50
869
ASUS44 KJAN 251310
RWRMS

MISSISSIPPI HOURLY WEATHER ROUNDUP
NATIONAL WEATHER SERVICE JACKSON MS
800 AM CDT TUE JUL 25 2017

NOTE: "FAIR: INDICATES FEW OR NO CLOUDS BELOW 12,000 FEET WITH NO
SIGNIFICANT WEATHER AND/OR OBSTRUCTIONS TO VISIBILITY.

MSZ001>002-007>008-010>013-018>021-025>028-034>036-251400-
NORTHWEST MISSISSIPPI

CITY           SKY/WX    TMP DP  RH WIND       PRES   REMARKS
BATESVILLE     FAIR      76  72  87 CALM      30.10R
CLARKSDALE       N/A     77  77 100 SW3       30.08F
CLEVELAND      PTSUNNY   77  77 100 SW3       30.08R
GREENWOOD      CLOUDY    76  75  97 SW3       30.10R
GREENVILLE     MOSUNNY   79  75  87 W8        30.08R
OLIVE BRANCH   SUNNY    N/A N/A N/A CALM      30.08R
OXFORD         FAIR      75  72  88 SW3       30.12S
TUNICA           N/A     75  73  94 S3        30.09R
WINONA         PTSUNNY   75  75 100 CALM      30.11R
$$

MSZ003>006-009-014>017-022>024-029>033-037>039-251400-
NORTHEAST MISSISSIPPI

CITY           SKY/WX    TMP DP  RH WIND       PRES   REMARKS
COLUMBUS AFB   CLOUDY    75  75 100 CALM      30.10R
CORINTH        FAIR      75  72  88 SE3       30.10R
GOLDN TRIANGLE CLOUDY    75  68  78 CALM      30.07R FOG
STARKVILLE     CLOUDY    73  72  94 CALM      30.12R FOG
TUPELO         SUNNY     77  71  82 CALM      30.10R
$$

MSZ040-058-251400-
CENTRAL MISSISSIPPI

CITY           SKY/WX    TMP DP  RH WIND       PRES   REMARKS
JACKSON INTL   CLOUDY    78  75  90 W3        30.11R
JACKSON HAWKNS NOT AVBL
MADISON        FAIR      77  72  83 W3        30.11R
MERIDIAN KEY   CLOUDY    77  75  93 SW3       30.12R
MERIDIAN NAS   CLOUDY    78  72  81 MISG      30.12R
RAYMOND        FAIR      75  75 100 SW6       30.11R FOG
$$

MSZ059>079-251400-
SOUTH MISSISSIPPI

CITY           SKY/WX    TMP DP  RH WIND       PRES   REMARKS
COLUMBIA       DRIZZLE   75  73  94 CALM      30.17R
HATTIESBURG    PTSUNNY   77  76  96 CALM      30.12S
LAUREL         FAIR      75  75 100 CALM      30.12R
MCCOMB         LGT RAIN  76  73  91 S3        30.12R
NATCHEZ        NOT AVBL
PINE BELT      PTSUNNY   75  75 100 VRB3      30.14R
$$

MSZ080>082-251400-
COASTAL MISSISSIPPI

CITY           SKY/WX    TMP DP  RH WIND       PRES   REMARKS
BILOXI         CLOUDY    80  78  93 W3        30.12R
PASCAGOULA     CLOUDY    76  74  93 CALM      30.12R
GULFPORT       CLOUDY    78  77  96 SW3       30.12R
$$

LAZ007>009-015>016-023>026-251400-
NORTHEAST LOUISIANA

CITY           SKY/WX    TMP DP  RH WIND       PRES   REMARKS
BASTROP        FAIR      80  79  96 W6        30.11R
TALLULAH/VBURG LGT RAIN  76  75  97 CALM      30.10R
VIDALIA        PTSUNNY   76  76  99 SW5       30.10R
$$




USA.gov is the U.S. government's official web portal to all federal, state and local government web resources and services.